Time,TemperatureF,DewpointF,PressureIn,WindDirection,WindDirectionDegrees,WindSpeedMPH,WindSpeedGustMPH,Humidity,HourlyPrecipIn,Conditions,Clouds,dailyrainin,SoftwareType,DateUTC
2013-02-13 00:01:00,38.0,26.0,-100.00,WNW,290,9.0,9.0,61,-99.99,,,-99.99,,2013-02-13 05:01:00,
2013-02-13 00:11:00,37.0,27.0,-100.00,West,270,7.0,11.0,65,-99.99,,,-99.99,,2013-02-13 05:11:00,
2013-02-13 00:21:00,37.0,27.0,-100.00,West,270,7.0,11.0,65,-99.99,,,-99.99,,2013-02-13 05:21:00,
2013-02-13 00:31:00,37.0,27.0,-100.00,West,270,7.0,11.0,65,-99.99,,,-99.99,,2013-02-13 05:31:00,
2013-02-13 00:41:00,37.0,27.0,-100.00,West,270,7.0,11.0,65,-99.99,,,-99.99,,2013-02-13 05:41:00,
2013-02-13 00:51:00,37.0,28.0,-100.00,WSW,250,7.0,9.0,69,-99.99,,,-99.99,,2013-02-13 05:51:00,
2013-02-13 01:01:00,37.0,28.0,-100.00,WSW,250,7.0,9.0,69,-99.99,,,-99.99,,2013-02-13 06:01:00,
2013-02-13 01:11:00,37.0,28.0,-100.00,West,260,7.0,7.0,71,-99.99,,,-99.99,,2013-02-13 06:11:00,
2013-02-13 01:21:00,37.0,28.0,-100.00,West,260,7.0,7.0,71,-99.99,,,-99.99,,2013-02-13 06:21:00,
2013-02-13 01:31:00,37.0,28.0,-100.00,West,260,7.0,7.0,71,-99.99,,,-99.99,,2013-02-13 06:31:00,
2013-02-13 01:41:00,37.0,28.0,-100.00,West,260,7.0,7.0,71,-99.99,,,-99.99,,2013-02-13 06:41:00,
2013-02-13 01:51:00,36.0,28.0,-100.00,West,260,9.0,9.0,72,-99.99,,,-99.99,,2013-02-13 06:51:00,
2013-02-13 02:01:00,36.0,28.0,-100.00,West,260,9.0,9.0,72,-99.99,,,-99.99,,2013-02-13 07:01:00,
2013-02-13 02:11:00,36.0,28.0,-100.00,West,260,9.0,9.0,72,-99.99,,,-99.99,,2013-02-13 07:11:00,
2013-02-13 02:21:00,36.0,29.0,-100.00,WSW,250,9.0,9.0,74,-99.99,,,-99.99,,2013-02-13 07:21:00,
2013-02-13 02:31:00,36.0,29.0,-100.00,WSW,250,9.0,9.0,74,-99.99,,,-99.99,,2013-02-13 07:31:00,
2013-02-13 02:41:00,36.0,29.0,-100.00,WSW,250,9.0,11.0,75,-99.99,,,-99.99,,2013-02-13 07:41:00,
2013-02-13 02:51:00,36.0,29.0,-100.00,WSW,250,9.0,11.0,75,-99.99,,,-99.99,,2013-02-13 07:51:00,
2013-02-13 03:01:00,36.0,29.0,-100.00,WSW,250,9.0,11.0,75,-99.99,,,-99.99,,2013-02-13 08:01:00,
2013-02-13 03:11:00,36.0,27.0,-100.00,West,260,9.0,11.0,71,-99.99,,,-99.99,,2013-02-13 08:11:00,
2013-02-13 03:21:00,36.0,27.0,-100.00,West,260,9.0,11.0,71,-99.99,,,-99.99,,2013-02-13 08:21:00,
2013-02-13 03:31:00,36.0,27.0,-100.00,West,260,9.0,11.0,71,-99.99,,,-99.99,,2013-02-13 08:31:00,
2013-02-13 03:42:00,36.0,27.0,-100.00,West,260,9.0,11.0,71,-99.99,,,-99.99,,2013-02-13 08:42:00,
2013-02-13 03:51:00,36.0,27.0,-100.00,West,260,9.0,11.0,71,-99.99,,,-99.99,,2013-02-13 08:51:00,
2013-02-13 04:01:00,36.0,27.0,-100.00,West,260,9.0,11.0,71,-99.99,,,-99.99,,2013-02-13 09:01:00,
2013-02-13 04:11:00,36.0,27.0,-100.00,West,260,9.0,11.0,71,-99.99,,,-99.99,,2013-02-13 09:11:00,
2013-02-13 04:21:00,35.0,28.0,-100.00,WNW,290,7.0,9.0,73,-99.99,,,-99.99,,2013-02-13 09:21:00,
2013-02-13 04:31:00,35.0,28.0,-100.00,WNW,290,7.0,9.0,73,-99.99,,,-99.99,,2013-02-13 09:31:00,
2013-02-13 04:41:00,35.0,28.0,-100.00,WNW,290,7.0,9.0,73,-99.99,,,-99.99,,2013-02-13 09:41:00,
2013-02-13 04:51:00,35.0,27.0,-100.00,WNW,300,7.0,9.0,72,-99.99,,,-99.99,,2013-02-13 09:51:00,
2013-02-13 05:01:00,35.0,27.0,-100.00,WNW,300,7.0,9.0,72,-99.99,,,-99.99,,2013-02-13 10:01:00,
2013-02-13 05:11:00,34.0,26.0,-100.00,WNW,300,7.0,9.0,71,-99.99,,,-99.99,,2013-02-13 10:11:00,
2013-02-13 05:21:00,34.0,26.0,-100.00,WNW,300,7.0,9.0,71,-99.99,,,-99.99,,2013-02-13 10:21:00,
2013-02-13 05:31:00,34.0,26.0,-100.00,WNW,300,7.0,9.0,71,-99.99,,,-99.99,,2013-02-13 10:31:00,
2013-02-13 05:41:00,34.0,26.0,-100.00,WNW,300,7.0,9.0,71,-99.99,,,-99.99,,2013-02-13 10:41:00,
2013-02-13 05:51:00,34.0,26.0,-100.00,NW,310,7.0,9.0,73,-99.99,,,-99.99,,2013-02-13 10:51:00,
2013-02-13 06:01:00,34.0,26.0,-100.00,NW,310,7.0,9.0,73,-99.99,,,-99.99,,2013-02-13 11:01:00,
2013-02-13 06:11:00,34.0,26.0,-100.00,NW,310,7.0,9.0,73,-99.99,,,-99.99,,2013-02-13 11:11:00,
2013-02-13 06:22:00,34.0,26.0,-100.00,WNW,300,7.0,7.0,72,-99.99,,,-99.99,,2013-02-13 11:22:00,
2013-02-13 06:31:00,34.0,26.0,-100.00,WNW,300,7.0,7.0,72,-99.99,,,-99.99,,2013-02-13 11:31:00,
2013-02-13 06:41:00,34.0,26.0,-100.00,WNW,300,7.0,7.0,72,-99.99,,,-99.99,,2013-02-13 11:41:00,
2013-02-13 06:52:00,34.0,27.0,-100.00,West,260,4.0,4.0,74,-99.99,,,-99.99,,2013-02-13 11:52:00,
2013-02-13 07:02:00,34.0,27.0,-100.00,West,260,4.0,4.0,74,-99.99,,,-99.99,,2013-02-13 12:02:00,
2013-02-13 07:11:00,34.0,27.0,-100.00,West,260,4.0,4.0,74,-99.99,,,-99.99,,2013-02-13 12:11:00,
2013-02-13 07:21:00,34.0,28.0,-100.00,SW,230,4.0,4.0,78,-99.99,,,-99.99,,2013-02-13 12:21:00,
2013-02-13 07:31:00,34.0,28.0,-100.00,SW,230,4.0,4.0,78,-99.99,,,-99.99,,2013-02-13 12:31:00,
2013-02-13 07:42:00,34.0,28.0,-100.00,SW,230,4.0,4.0,78,-99.99,,,-99.99,,2013-02-13 12:42:00,
2013-02-13 07:51:00,34.0,28.0,-100.00,SW,230,7.0,7.0,79,-99.99,,,-99.99,,2013-02-13 12:51:00,
2013-02-13 08:02:00,34.0,28.0,-100.00,SW,230,7.0,7.0,79,-99.99,,,-99.99,,2013-02-13 13:02:00,
2013-02-13 08:11:00,35.0,27.0,-100.00,West,260,4.0,7.0,74,-99.99,,,-99.99,,2013-02-13 13:11:00,
2013-02-13 08:21:00,35.0,27.0,-100.00,West,260,4.0,7.0,74,-99.99,,,-99.99,,2013-02-13 13:21:00,
2013-02-13 08:31:00,35.0,27.0,-100.00,West,260,4.0,7.0,74,-99.99,,,-99.99,,2013-02-13 13:31:00,
2013-02-13 08:41:00,34.0,27.0,-100.00,WNW,290,4.0,7.0,74,-99.99,,,-99.99,,2013-02-13 13:41:00,
2013-02-13 08:51:00,34.0,27.0,-100.00,WNW,290,4.0,7.0,74,-99.99,,,-99.99,,2013-02-13 13:51:00,
2013-02-13 09:01:00,34.0,27.0,-100.00,WNW,290,4.0,7.0,74,-99.99,,,-99.99,,2013-02-13 14:01:00,
2013-02-13 09:11:00,34.0,27.0,-100.00,WNW,290,4.0,7.0,74,-99.99,,,-99.99,,2013-02-13 14:11:00,
2013-02-13 10:21:00,36.0,27.0,-100.00,North,0,0.0,2.0,71,-99.99,,,-99.99,,2013-02-13 15:21:00,
2013-02-13 10:31:00,36.0,27.0,-100.00,North,0,0.0,2.0,71,-99.99,,,-99.99,,2013-02-13 15:31:00,
2013-02-13 10:41:00,36.0,27.0,-100.00,North,0,0.0,2.0,71,-99.99,,,-99.99,,2013-02-13 15:41:00,
2013-02-13 10:51:00,35.0,28.0,-100.00,South,170,4.0,7.0,74,-99.99,,,-99.99,,2013-02-13 15:51:00,
2013-02-13 11:01:00,35.0,28.0,-100.00,South,170,4.0,7.0,74,-99.99,,,-99.99,,2013-02-13 16:01:00,
2013-02-13 11:11:00,35.0,28.0,-100.00,South,170,4.0,7.0,74,-99.99,,,-99.99,,2013-02-13 16:11:00,
2013-02-13 11:21:00,36.0,28.0,-100.00,South,180,4.0,4.0,73,-99.99,,,-99.99,,2013-02-13 16:21:00,
2013-02-13 11:31:00,36.0,28.0,-100.00,South,180,4.0,4.0,73,-99.99,,,-99.99,,2013-02-13 16:31:00,
2013-02-13 11:41:00,36.0,28.0,-100.00,South,180,4.0,4.0,73,-99.99,,,-99.99,,2013-02-13 16:41:00,
2013-02-13 11:51:00,36.0,27.0,-100.00,South,190,7.0,9.0,68,-99.99,,,-99.99,,2013-02-13 16:51:00,
2013-02-13 12:01:00,36.0,27.0,-100.00,South,190,7.0,9.0,68,-99.99,,,-99.99,,2013-02-13 17:01:00,
2013-02-13 12:11:00,37.0,26.0,-100.00,South,170,2.0,4.0,65,-99.99,,,-99.99,,2013-02-13 17:11:00,
2013-02-13 12:21:00,37.0,26.0,-100.00,South,170,2.0,4.0,65,-99.99,,,-99.99,,2013-02-13 17:21:00,
2013-02-13 12:31:00,37.0,26.0,-100.00,South,170,2.0,4.0,65,-99.99,,,-99.99,,2013-02-13 17:31:00,
2013-02-13 12:41:00,37.0,26.0,-100.00,South,170,2.0,4.0,65,-99.99,,,-99.99,,2013-02-13 17:41:00,
2013-02-13 12:52:00,38.0,26.0,-100.00,WSW,240,7.0,9.0,61,-99.99,,,-99.99,,2013-02-13 17:52:00,
2013-02-13 13:01:00,38.0,26.0,-100.00,WSW,240,7.0,9.0,61,-99.99,,,-99.99,,2013-02-13 18:01:00,
2013-02-13 13:11:00,39.0,26.0,-100.00,WSW,250,2.0,4.0,60,-99.99,,,-99.99,,2013-02-13 18:11:00,
2013-02-13 13:22:00,39.0,26.0,-100.00,WSW,250,2.0,4.0,60,-99.99,,,-99.99,,2013-02-13 18:22:00,
2013-02-13 13:31:00,39.0,26.0,-100.00,WSW,250,2.0,4.0,60,-99.99,,,-99.99,,2013-02-13 18:31:00,
2013-02-13 13:41:00,39.0,26.0,-100.00,WSW,250,2.0,4.0,60,-99.99,,,-99.99,,2013-02-13 18:41:00,
2013-02-13 13:51:00,40.0,23.0,-100.00,North,0,0.0,2.0,50,-99.99,,,-99.99,,2013-02-13 18:51:00,
2013-02-13 14:01:00,40.0,23.0,-100.00,North,0,0.0,2.0,50,-99.99,,,-99.99,,2013-02-13 19:01:00,
2013-02-13 14:11:00,40.0,23.0,-100.00,North,0,0.0,2.0,50,-99.99,,,-99.99,,2013-02-13 19:11:00,
2013-02-13 14:21:00,39.0,26.0,-100.00,East,90,2.0,4.0,58,-99.99,,,-99.99,,2013-02-13 19:21:00,
2013-02-13 14:31:00,39.0,26.0,-100.00,East,90,2.0,4.0,58,-99.99,,,-99.99,,2013-02-13 19:31:00,
2013-02-13 14:41:00,39.0,26.0,-100.00,East,90,2.0,4.0,58,-99.99,,,-99.99,,2013-02-13 19:41:00,
2013-02-13 14:51:00,39.0,25.0,-100.00,East,100,4.0,4.0,56,-99.99,,,-99.99,,2013-02-13 19:51:00,
2013-02-13 15:01:00,39.0,25.0,-100.00,East,100,4.0,4.0,56,-99.99,,,-99.99,,2013-02-13 20:01:00,
2013-02-13 15:11:00,39.0,25.0,-100.00,East,100,4.0,4.0,56,-99.99,,,-99.99,,2013-02-13 20:11:00,
2013-02-13 15:21:00,40.0,26.0,-100.00,East,100,4.0,4.0,57,-99.99,,,-99.99,,2013-02-13 20:21:00,
2013-02-13 15:31:00,40.0,26.0,-100.00,East,100,4.0,4.0,57,-99.99,,,-99.99,,2013-02-13 20:31:00,
2013-02-13 15:41:00,40.0,26.0,-100.00,East,100,4.0,4.0,57,-99.99,,,-99.99,,2013-02-13 20:41:00,
2013-02-13 15:51:00,38.0,31.0,-100.00,SE,140,7.0,7.0,75,-99.99,,,-99.99,,2013-02-13 20:51:00,
2013-02-13 16:01:00,38.0,31.0,-100.00,SE,140,7.0,7.0,75,-99.99,,,-99.99,,2013-02-13 21:01:00,
2013-02-13 16:11:00,38.0,30.0,-100.00,ESE,120,7.0,7.0,72,-99.99,,,-99.99,,2013-02-13 21:11:00,
2013-02-13 16:21:00,38.0,30.0,-100.00,ESE,120,7.0,7.0,72,-99.99,,,-99.99,,2013-02-13 21:21:00,
2013-02-13 16:31:00,38.0,30.0,-100.00,ESE,120,7.0,7.0,72,-99.99,,,-99.99,,2013-02-13 21:31:00,
2013-02-13 16:42:00,38.0,30.0,-100.00,ESE,120,7.0,7.0,72,-99.99,,,-99.99,,2013-02-13 21:42:00,
2013-02-13 16:51:00,38.0,31.0,-100.00,East,100,4.0,7.0,77,-99.99,,,-99.99,,2013-02-13 21:51:00,
2013-02-13 17:01:00,38.0,31.0,-100.00,East,100,4.0,7.0,77,-99.99,,,-99.99,,2013-02-13 22:01:00,
2013-02-13 17:11:00,38.0,31.0,-100.00,East,100,4.0,7.0,77,-99.99,,,-99.99,,2013-02-13 22:11:00,
2013-02-13 17:21:00,39.0,29.0,-100.00,ESE,120,4.0,4.0,66,-99.99,,,-99.99,,2013-02-13 22:21:00,
2013-02-13 17:31:00,39.0,29.0,-100.00,ESE,120,4.0,4.0,66,-99.99,,,-99.99,,2013-02-13 22:31:00,
2013-02-13 17:41:00,39.0,29.0,-100.00,ESE,120,4.0,4.0,66,-99.99,,,-99.99,,2013-02-13 22:41:00,
2013-02-13 17:51:00,38.0,31.0,-100.00,East,80,4.0,7.0,77,-99.99,,,-99.99,,2013-02-13 22:51:00,
2013-02-13 18:01:00,38.0,31.0,-100.00,East,80,4.0,7.0,77,-99.99,,,-99.99,,2013-02-13 23:01:00,
2013-02-13 18:11:00,36.0,32.0,-100.00,NE,50,9.0,11.0,84,-99.99,,,-99.99,,2013-02-13 23:11:00,
2013-02-13 18:21:00,36.0,32.0,-100.00,NE,50,9.0,11.0,84,-99.99,,,-99.99,,2013-02-13 23:21:00,
2013-02-13 18:31:00,36.0,32.0,-100.00,NE,50,9.0,11.0,84,-99.99,,,-99.99,,2013-02-13 23:31:00,
2013-02-13 18:41:00,36.0,32.0,-100.00,ENE,70,9.0,9.0,84,-99.99,,,-99.99,,2013-02-13 23:41:00,
2013-02-13 18:51:00,36.0,32.0,-100.00,ENE,70,9.0,9.0,84,-99.99,,,-99.99,,2013-02-13 23:51:00,
2013-02-13 19:01:00,36.0,32.0,-100.00,ENE,70,9.0,9.0,84,-99.99,,,-99.99,,2013-02-14 00:01:00,
2013-02-13 19:11:00,36.0,32.0,-100.00,ENE,70,9.0,9.0,84,-99.99,,,-99.99,,2013-02-14 00:11:00,
2013-02-13 19:21:00,36.0,33.0,-100.00,NE,50,9.0,11.0,85,-99.99,,,-99.99,,2013-02-14 00:21:00,
2013-02-13 19:31:00,36.0,33.0,-100.00,NE,50,9.0,11.0,85,-99.99,,,-99.99,,2013-02-14 00:31:00,
2013-02-13 19:41:00,36.0,33.0,-100.00,NE,50,9.0,11.0,85,-99.99,,,-99.99,,2013-02-14 00:41:00,
2013-02-13 19:51:00,36.0,33.0,-100.00,NE,50,7.0,9.0,86,-99.99,,,-99.99,,2013-02-14 00:51:00,
2013-02-13 20:01:00,36.0,33.0,-100.00,NE,50,7.0,9.0,86,-99.99,,,-99.99,,2013-02-14 01:01:00,
2013-02-13 20:11:00,36.0,33.0,-100.00,NE,50,7.0,9.0,86,-99.99,,,-99.99,,2013-02-14 01:11:00,
2013-02-13 20:21:00,36.0,33.0,-100.00,ENE,60,7.0,9.0,86,-99.99,,,-99.99,,2013-02-14 01:21:00,
2013-02-13 20:31:00,36.0,33.0,-100.00,ENE,60,7.0,9.0,86,-99.99,,,-99.99,,2013-02-14 01:31:00,
2013-02-13 20:41:00,36.0,33.0,-100.00,ENE,60,7.0,9.0,86,-99.99,,,-99.99,,2013-02-14 01:41:00,
2013-02-13 20:51:00,36.0,33.0,-100.00,ENE,60,7.0,9.0,87,-99.99,,,-99.99,,2013-02-14 01:51:00,
2013-02-13 21:01:00,36.0,33.0,-100.00,ENE,60,7.0,9.0,87,-99.99,,,-99.99,,2013-02-14 02:01:00,
2013-02-13 21:11:00,36.0,33.0,-100.00,ENE,60,7.0,7.0,87,-99.99,,,-99.99,,2013-02-14 02:11:00,
2013-02-13 21:21:00,36.0,33.0,-100.00,ENE,60,7.0,7.0,87,-99.99,,,-99.99,,2013-02-14 02:21:00,
2013-02-13 21:31:00,36.0,33.0,-100.00,ENE,60,7.0,7.0,87,-99.99,,,-99.99,,2013-02-14 02:31:00,
2013-02-13 21:41:00,36.0,33.0,-100.00,ENE,60,7.0,7.0,87,-99.99,,,-99.99,,2013-02-14 02:41:00,
2013-02-13 22:02:00,36.0,33.0,-100.00,NE,40,7.0,9.0,86,-99.99,,,-99.99,,2013-02-14 03:02:00,
2013-02-13 22:11:00,37.0,30.0,-100.00,NNE,30,7.0,9.0,76,-99.99,,,-99.99,,2013-02-14 03:11:00,
2013-02-13 22:21:00,37.0,30.0,-100.00,NNE,30,7.0,9.0,76,-99.99,,,-99.99,,2013-02-14 03:21:00,
2013-02-13 22:31:00,37.0,30.0,-100.00,NNE,30,7.0,9.0,76,-99.99,,,-99.99,,2013-02-14 03:31:00,
2013-02-13 22:42:00,37.0,30.0,-100.00,NNE,30,7.0,9.0,76,-99.99,,,-99.99,,2013-02-14 03:42:00,
2013-02-13 22:51:00,36.0,31.0,-100.00,North,10,7.0,7.0,79,-99.99,,,-99.99,,2013-02-14 03:51:00,
2013-02-13 23:01:00,36.0,31.0,-100.00,North,10,7.0,7.0,79,-99.99,,,-99.99,,2013-02-14 04:01:00,
2013-02-13 23:11:00,36.0,31.0,-100.00,North,10,7.0,7.0,79,-99.99,,,-99.99,,2013-02-14 04:11:00,
2013-02-13 23:21:00,36.0,31.0,-100.00,NNE,20,4.0,7.0,79,-99.99,,,-99.99,,2013-02-14 04:21:00,
2013-02-13 23:31:00,36.0,31.0,-100.00,NNE,20,4.0,7.0,79,-99.99,,,-99.99,,2013-02-14 04:31:00,
2013-02-13 23:41:00,36.0,31.0,-100.00,NNE,20,4.0,7.0,79,-99.99,,,-99.99,,2013-02-14 04:41:00,
2013-02-13 23:51:00,36.0,31.0,-100.00,North,360,11.0,16.0,81,-99.99,,,-99.99,,2013-02-14 04:51:00,